FW4679 Weather Reports


Display with metric or nautical units.
time (UTC)temp
F
wind
direction
speed
MPH
gust
MPH
rain 1hr
in
rain 24hr
in
rain mn
in
humidity
%
barometer
mb
20260508213029 57 233 7.0 13.0 0.00 0.00 0.00 41 1015.5
20260508211528 58 255 5.0 10.0 0.00 0.00 0.00 40 1015.5
20260508210027 59 296 2.0 8.0 0.00 0.00 0.00 40 1015.6
20260508204524 57 319 4.0 10.0 0.00 0.00 0.00 43 1015.6
20260508203024 56 323 6.0 9.0 0.00 0.00 0.00 42 1016.0
20260508201525 56 321 0.0 8.0 0.00 0.00 0.00 42 1015.9
20260508200024 57 318 6.0 17.0 0.00 0.00 0.00 41 1016.1
20260508194524 57 331 7.0 13.0 0.00 0.00 0.00 42 1016.4
20260508193019 56 315 8.0 13.0 0.00 0.00 0.00 43 1016.4
20260508191518 56 62 2.0 11.0 0.00 0.00 0.00 46 1016.7
20260508190012 54 348 1.0 11.0 0.00 0.00 0.00 47 1016.9
20260508184511 54 260 6.0 15.0 0.00 0.00 0.00 46 1017.2
20260508183009 53 261 6.0 11.0 0.00 0.00 0.00 50 1017.5
20260508181509 52 273 6.0 14.0 0.00 0.00 0.00 52 1017.6
20260508180004 51 284 7.0 11.0 0.00 0.00 0.00 57 1017.5
20260508174501 51 311 1.0 10.0 0.00 0.00 0.00 63 1017.6
20260508173059 49 298 4.0 9.0 0.00 0.00 0.00 65 1017.8
20260508171600 50 238 1.0 8.0 0.00 0.00 0.00 66 1017.8
20260508170058 49 345 1.0 7.0 0.00 0.00 0.00 67 1017.9
20260508164557 48 49 3.0 6.0 0.00 0.00 0.00 70 1018.0
20260508163056 47 21 2.0 8.0 0.00 0.00 0.00 74 1018.1
20260508161604 45 55 5.0 11.0 0.00 0.00 0.00 74 1018.4
20260508160051 46 26 3.0 8.0 0.00 0.00 0.00 73 1018.2
20260508154550 46 360 2.0 6.0 0.00 0.00 0.00 71 1017.8
20260508153053 47 321 3.0 6.0 0.00 0.00 0.00 72 1017.8
20260508151552 46 351 2.0 6.0 0.00 0.00 0.00 73 1017.5
20260508150048 46 319 1.0 5.0 0.00 0.00 0.00 73 1017.5
20260508144549 45 315 2.0 6.0 0.00 0.00 0.00 72 1017.8
20260508143049 45 271 3.0 6.0 0.00 0.00 0.00 73 1017.7
20260508141547 45 288 4.0 8.0 0.00 0.00 0.00 75 1017.7
20260508140046 45 275 3.0 5.0 0.00 0.00 0.00 76 1017.7
20260508134549 45 324 1.0 5.0 0.00 0.00 0.00 75 1017.4
20260508133056 45 267 1.0 3.0 0.00 0.00 0.00 76 1017.2
20260508131546 45 231 1.0 3.0 0.00 0.00 0.00 76 1017.0
20260508130042 44 230 3.0 7.0 0.00 0.00 0.00 76 1017.0
20260508124540 44 218 2.0 5.0 0.00 0.00 0.00 76 1016.7
20260508123053 43 233 2.0 6.0 0.00 0.00 0.00 79 1016.8
20260508121550 43 223 2.0 5.0 0.00 0.00 0.00 81 1016.9
20260508120040 43 213 3.0 5.0 0.00 0.00 0.00 83 1017.2
20260508114539 42 215 0.0 3.0 0.00 0.00 0.00 84 1016.9
20260508113041 41 214 1.0 2.0 0.00 0.00 0.00 85 1017.2
20260508111538 41 214 1.0 3.0 0.00 0.00 0.00 85 1017.0
20260508110044 40 214 0.0 2.0 0.00 0.00 0.00 85 1017.0
20260508104537 40 214 0.0 3.0 0.00 0.00 0.00 85 1016.8
20260508103036 40 214 1.0 4.0 0.00 0.00 0.00 85 1017.1
20260508101537 40 214 1.0 4.0 0.00 0.00 0.00 84 1017.0
20260508100036 40 214 1.0 2.0 0.00 0.00 0.00 85 1017.0
20260508094535 39 214 1.0 4.0 0.00 0.00 0.00 84 1017.2
20260508093034 39 213 2.0 5.0 0.00 0.00 0.00 83 1017.0
20260508091530 41 212 0.0 1.0 0.00 0.00 0.00 83 1016.8
20260508090033 41 212 1.0 4.0 0.00 0.00 0.00 82 1016.9
20260508084525 42 211 2.0 3.0 0.00 0.00 0.00 81 1016.6
20260508083024 42 211 0.0 3.0 0.00 0.00 0.00 81 1016.6
20260508081526 42 210 2.0 5.0 0.00 0.00 0.00 81 1016.5
20260508080021 43 242 1.0 3.0 0.00 0.00 0.00 80 1016.5
20260508074519 43 242 0.0 4.0 0.00 0.00 0.00 81 1016.1
20260508073018 43 242 2.0 5.0 0.00 0.00 0.00 81 1016.3
20260508071526 44 238 3.0 8.0 0.00 0.00 0.00 80 1016.2
20260508070016 44 254 4.0 8.0 0.00 0.00 0.00 80 1016.4
20260508064513 44 211 3.0 5.0 0.00 0.00 0.00 79 1016.2
20260508063012 44 207 2.0 5.0 0.00 0.00 0.00 77 1016.3
20260508061515 44 209 3.0 5.0 0.00 0.00 0.00 75 1016.2
20260508060008 44 226 3.0 5.0 0.00 0.00 0.00 74 1016.0
20260508054506 45 216 3.0 5.0 0.00 0.00 0.00 73 1016.1
20260508053004 45 214 1.0 4.0 0.00 0.00 0.00 71 1016.2
20260508051503 46 214 2.0 6.0 0.00 0.00 0.00 70 1016.3
20260508044607 47 221 2.0 5.0 0.00 0.00 0.00 66 1016.5
20260508043107 47 236 4.0 7.0 0.00 0.00 0.00 62 1016.5
20260508041555 48 224 4.0 7.0 0.00 0.00 0.00 59 1016.7
20260508040056 48 240 4.0 8.0 0.00 0.00 0.00 62 1016.6
20260508034555 48 261 2.0 4.0 0.00 0.00 0.00 61 1016.6
20260508033050 48 261 1.0 4.0 0.00 0.00 0.00 60 1016.3
20260508031550 48 294 1.0 5.0 0.00 0.00 0.00 60 1016.1
20260508030058 48 313 1.0 4.0 0.00 0.00 0.00 59 1015.9
20260508024549 49 71 0.0 2.0 0.00 0.00 0.00 55 1015.7
20260508023048 49 71 1.0 6.0 0.00 0.00 0.00 53 1015.5
20260508021549 49 53 2.0 5.0 0.00 0.00 0.00 54 1015.4
20260508020049 50 52 3.0 5.0 0.00 0.00 0.00 54 1015.4
20260508014548 51 51 2.0 4.0 0.00 0.00 0.00 53 1015.4
20260508013047 52 47 2.0 4.0 0.00 0.00 0.00 52 1015.0
20260508011547 52 47 1.0 3.0 0.00 0.00 0.00 51 1015.0
20260508010047 53 47 1.0 5.0 0.00 0.00 0.00 50 1015.0
20260508004551 53 360 0.0 3.0 0.00 0.00 0.00 48 1015.0
20260508003047 54 360 1.0 4.0 0.00 0.00 0.00 48 1014.8
20260508001544 54 324 0.0 6.0 0.00 0.00 0.00 47 1014.8
20260508000044 54 30 0.0 8.0 0.00 0.00 0.00 46 1014.6
20260507234552 55 346 1.0 6.0 0.00 0.00 0.00 45 1014.5
20260507233044 55 11 4.0 11.0 0.00 0.00 0.00 44 1014.4
20260507231549 55 51 3.0 10.0 0.00 0.00 0.00 45 1014.3
20260507230046 57 55 9.0 14.0 0.00 0.00 0.00 43 1014.3
20260507224544 58 33 5.0 11.0 0.00 0.00 0.00 42 1014.3
20260507223042 58 55 7.0 14.0 0.00 0.00 0.00 42 1014.2
20260507221542 59 67 7.0 15.0 0.00 0.00 0.00 43 1014.3
20260507220040 58 360 5.0 12.0 0.00 0.00 0.00 43 1014.2
20260507214538 58 342 2.0 15.0 0.00 0.00 0.00 42 1014.2